TimeEDT,TemperatureF,Dew PointF,Humidity,Sea Level PressureIn,VisibilityMPH,Wind Direction,Wind SpeedMPH,Gust SpeedMPH,PrecipitationIn,Events,Conditions,WindDirDegrees,DateUTC
12:52 AM,75.9,72.0,87,30.22,10.0,Calm,Calm,-,N/A,,Overcast,0,2013-07-15 04:52:00
1:52 AM,73.9,71.1,91,30.22,10.0,Calm,Calm,-,N/A,,Partly Cloudy,0,2013-07-15 05:52:00
2:52 AM,73.0,70.0,90,30.20,10.0,NNW,3.5,-,N/A,,Partly Cloudy,330,2013-07-15 06:52:00
3:52 AM,73.0,70.0,90,30.21,10.0,WNW,3.5,-,N/A,,Clear,290,2013-07-15 07:52:00
4:52 AM,73.0,69.1,87,30.21,10.0,Calm,Calm,-,N/A,,Clear,0,2013-07-15 08:52:00
5:52 AM,72.0,69.1,91,30.22,8.0,Calm,Calm,-,N/A,,Clear,0,2013-07-15 09:52:00
6:52 AM,75.0,70.0,84,30.22,9.0,Calm,Calm,-,N/A,,Clear,0,2013-07-15 10:52:00
7:52 AM,82.0,71.1,69,30.22,10.0,Calm,Calm,-,N/A,,Clear,0,2013-07-15 11:52:00
8:52 AM,84.9,71.1,63,30.21,10.0,WNW,4.6,-,N/A,,Clear,290,2013-07-15 12:52:00
9:52 AM,87.1,71.1,59,30.20,10.0,NNE,5.8,-,N/A,,Clear,30,2013-07-15 13:52:00
10:52 AM,88.0,71.1,57,30.19,10.0,NE,4.6,-,N/A,,Scattered Clouds,50,2013-07-15 14:52:00
11:52 AM,90.0,69.1,50,30.19,10.0,North,4.6,-,N/A,,Partly Cloudy,10,2013-07-15 15:52:00
12:52 PM,91.0,70.0,50,30.17,10.0,NNW,8.1,-,N/A,,Scattered Clouds,330,2013-07-15 16:52:00
1:52 PM,91.0,66.0,44,30.16,10.0,North,9.2,-,N/A,,Partly Cloudy,10,2013-07-15 17:52:00
2:52 PM,93.9,64.9,38,30.15,10.0,NW,8.1,-,N/A,,Partly Cloudy,310,2013-07-15 18:52:00
3:52 PM,91.9,64.9,41,30.14,10.0,North,4.6,-,N/A,,Clear,360,2013-07-15 19:52:00
4:52 PM,93.0,68.0,44,30.13,10.0,North,5.8,-,N/A,,Clear,360,2013-07-15 20:52:00
5:52 PM,93.0,66.9,42,30.12,10.0,North,6.9,-,N/A,,Clear,360,2013-07-15 21:52:00
6:52 PM,91.9,66.9,44,30.12,10.0,NW,8.1,-,N/A,,Clear,320,2013-07-15 22:52:00
7:52 PM,88.0,64.9,46,30.12,10.0,NW,5.8,-,N/A,,Clear,320,2013-07-15 23:52:00
8:52 PM,78.1,68.0,71,30.13,10.0,Calm,Calm,-,N/A,,Clear,0,2013-07-16 00:52:00
9:52 PM,77.0,68.0,74,30.14,10.0,Calm,Calm,-,N/A,,Clear,0,2013-07-16 01:52:00
10:52 PM,78.1,68.0,71,30.15,10.0,Calm,Calm,-,N/A,,Mostly Cloudy,0,2013-07-16 02:52:00
11:52 PM,75.9,68.0,76,30.15,10.0,NNW,3.5,-,N/A,,Clear,340,2013-07-16 03:52:00